Tracking 19638 objects as of 21-Apr-2019
HD Live streaming from Space Station
objects crossing your sky now

WESTAR 5

Track WESTAR 5 now!
WESTAR 5 is classified as:


NORAD ID: 13269
Int'l Code: 1982-058A
Perigee: 36,041.6 km
Apogee: 36,143.7 km
Inclination: 15.3 °
Period: 1,451.4 minutes
Semi major axis: 42463 km
RCS: 3.0486 m2 (large)
Launch date: June 9, 1982
Source: United States (US)
Launch site: AIR FORCE EASTERN TEST RANGE (AFETR)
aabbcc
Your satellite tracking list
Your tracking list is empty




NASA's NSSDC Master Catalog

Two Line Element Set (TLE):
1 13269U 82058A   19110.48829563  .00000022  00000-0  00000+0 0  9994
2 13269  15.2827 358.4273 0012019 223.4314  19.1775  0.99214796 93595
Source of the keplerian elements: AFSPC